Weather History for Fryeburg, ME

Change the Weather History Date:

Monday, December 15, 2014

  Actual Average Record
Temperature  
Mean Temperature 28 °F -  
Max Temperature 41 °F 34 °F 55 °F (2008)
Min Temperature 16 °F 14 °F -9 °F (2005)
Degree Days  
Heating Degree Days 36    
Moisture  
Dew Point 21 °F    
Average Humidity 83    
Maximum Humidity 93    
Minimum Humidity 55    
Precipitation  
Precipitation 0.00 in - - ()
Sea Level Pressure  
Sea Level Pressure 30.05 in    
Wind  
Wind Speed 0 mph (NW)    
Max Wind Speed 5 mph    
Max Gust Speed -    
Visibility 10 miles    
Events      
Averages and records for this station are not official NWS values.
T = Trace of Precipitation, MM = Missing Value Source: NWS Daily Summary

Daily Weather History Graph

Daily Weather History Graph

Search for Another Location

Airport:

Trip Planner

Search our weather history database for the weather conditions in past years. The results will help you decide how hot, cold, wet, or windy it might be!

Date:

Astronomy

Dec. 15, 2014 Rise Set
Actual Time 7:11 AM EST 4:06 PM EST
Civil Twilight 6:38 AM EST 4:39 PM EST
Nautical Twilight 6:01 AM EST 5:15 PM EST
Astronomical Twilight 5:26 AM EST 5:51 PM EST
Moon 12:14 AM EST (12/15) 12:15 PM EST (12/15)
Length of Visible Light 10h 00m
Length of Day
8h 54m
Last Quarter, 39% of the Moon is Illuminated
Dec 15
Last Quarter
Dec 21
New
Dec 28
First Quarter
Jan 4
Full
Jan 13
Last Quarter

Hourly Weather History & Observations

Time (EST) Temp. Windchill Dew Point Humidity Pressure Visibility Wind Dir Wind Speed Gust Speed Precip Events Conditions
12:54 AM 21.0 °F - 19.0 °F 92% 29.90 in 10.0 mi Calm Calm - N/A   Clear
1:54 AM 19.9 °F - 17.1 °F 89% 29.91 in 10.0 mi Calm Calm - N/A   Clear
2:54 AM 19.9 °F - 17.1 °F 89% 29.92 in 10.0 mi Calm Calm - N/A   Clear
3:54 AM 17.1 °F - 15.1 °F 92% 29.93 in 10.0 mi Calm Calm - N/A   Clear
4:54 AM 18.0 °F - 14.0 °F 84% 29.94 in 10.0 mi Calm Calm - N/A   Clear
5:54 AM 19.0 °F - 15.1 °F 85% 29.96 in 10.0 mi Calm Calm - N/A   Clear
6:54 AM 16.0 °F - 14.0 °F 92% 29.98 in 10.0 mi Calm Calm - N/A   Clear
7:54 AM 18.0 °F 11.1 °F 16.0 °F 92% 30.01 in 10.0 mi West 4.6 mph - N/A   Clear
8:54 AM 26.1 °F - 23.0 °F 88% 30.03 in 10.0 mi Calm Calm - N/A   Clear
9:54 AM 33.1 °F - 28.0 °F 82% 30.04 in 10.0 mi Calm Calm - N/A   Clear
10:54 AM 36.0 °F - 27.0 °F 70% 30.04 in 10.0 mi Calm Calm - N/A   Clear
11:54 AM 37.9 °F - 26.1 °F 62% 30.03 in 10.0 mi Calm Calm - N/A   Clear
12:54 PM 39.9 °F - 26.1 °F 58% 30.03 in 10.0 mi Calm Calm - N/A   Clear
1:54 PM 39.9 °F 37.8 °F 26.1 °F 58% 30.04 in 10.0 mi NE 3.5 mph - N/A   Clear
2:54 PM 41.0 °F - 26.1 °F 55% 30.06 in 10.0 mi Calm Calm - N/A   Clear
3:54 PM 34.0 °F - 25.0 °F 70% 30.08 in 10.0 mi Calm Calm - N/A   Clear
4:54 PM 28.0 °F - 24.1 °F 85% 30.09 in 10.0 mi Calm Calm - N/A   Clear
5:54 PM 27.0 °F 21.6 °F 24.1 °F 89% 30.12 in 10.0 mi WNW 4.6 mph - N/A   Clear
6:54 PM 25.0 °F - 21.9 °F 88% 30.15 in 10.0 mi Calm Calm - N/A   Clear
7:54 PM 21.9 °F - 19.9 °F 92% 30.16 in 10.0 mi Calm Calm - N/A   Clear
8:51 PM 21.2 °F - 19.4 °F 93% 30.14 in 10.0 mi Calm Calm - N/A   Mostly Cloudy
8:54 PM 21.9 °F - 19.9 °F 92% 30.17 in 10.0 mi Calm Calm - N/A   Mostly Cloudy
9:54 PM 25.0 °F - 23.0 °F 92% 30.17 in 10.0 mi Calm Calm - N/A   Overcast
10:54 PM 26.1 °F - 24.1 °F 92% 30.17 in 10.0 mi Calm Calm - N/A   Overcast
11:54 PM 28.0 °F - 26.1 °F 92% 30.17 in 10.0 mi Calm Calm - N/A   Overcast